Location: Bad Salzschlirf
(50.3750°N, 9.3000°E)
Time: 21:49:28
(UTC+01:00)

ISS - Pass Details

Date: 04 November 2024
Orbit: 406 x 419 km, 51.6° (Epoch: 08 November)

Event Time Altitude Azimuth Distance (km) Brightness Sun altitude
Exits shadow 04:30:20 12° 133° (SE) 1,359 -0.8 -27.1°
Drops below altitude 10° 04:30:36 10° 132° (SE) 1,463 -0.6 -27.1°
Sets 04:32:43 0° 126° (SE) 2,320 0.7 -26.8°
